Humidity-temperature Sensor

Selected Measurement Type: Relative Humidity

 
Relative Humidity [%]     6 entries per hour
Showing data from 11/5/2014 (12:40:00 Z) to 11/4/2014 (00:01:00 Z)
Previous Next [ Day | 3-Days | 7-Days ]
First Last
Prev [ Day | 3-Days | 7-Days ] Next
First Last

Start Time:     :
End Time:     :     
Time (in GMT) :00 :50 :40 :30 :20 :10
Previous Next [ Day | 3-Days | 7-Days ]
First Last
Prev [ Day | 3-Days | 7-Days ] Next
First Last


123 => good data
MM => data is determined as missing
-- => data not received/configured
Back to Top Back to Top
11/5/2014 13:00 to 12:10 -- -- 76.51 76.70 76.85 76.60
11/5/2014 12:00 to 11:10 77.09 76.56 76.32 76.32 75.69 75.18
11/5/2014 11:00 to 10:10 75.01 75.20 75.86 76.73 76.90 76.66
11/5/2014 10:00 to 9:10 76.73 76.53 76.51 76.73 77.70 78.63
11/5/2014 09:00 to 8:10 79.29 78.99 78.46 78.36 78.17 78.19
11/5/2014 08:00 to 7:10 77.91 77.76 77.55 77.53 77.74 77.06
11/5/2014 07:00 to 6:10 77.02 76.79 76.66 76.60 76.83 76.56
11/5/2014 06:00 to 5:10 75.81 75.84 76.11 76.17 76.34 75.64
11/5/2014 05:00 to 4:10 -- -- -- -- -- --
11/5/2014 04:00 to 3:10 75.16 74.31 74.82 74.73 74.50 74.65
11/5/2014 03:00 to 2:10 74.90 75.01 74.27 73.95 73.33 72.59
11/5/2014 02:00 to 1:10 72.57 73.61 73.10 72.78 72.04 71.28
11/5/2014 01:00 to 0:10 71.38 71.64 71.98 71.57 72.38 71.17
11/5/2014 00:00 to 23:10 71.28 71.04 71.28 70.94 71.09 70.13
11/4/2014 23:00 to 22:10 71.02 71.09 71.28 71.34 71.94 72.04
11/4/2014 22:00 to 21:10 72.85 72.76 71.81 72.83 72.47 72.38
11/4/2014 21:00 to 20:10 72.19 72.89 72.97 72.61 71.68 70.98
11/4/2014 20:00 to 19:10 71.04 70.49 71.74 72.40 71.43 71.74
11/4/2014 19:00 to 18:10 72.06 73.21 74.31 74.63 74.03 72.57
11/4/2014 18:00 to 17:10 72.25 72.04 71.83 72.27 71.77 73.21
11/4/2014 17:00 to 16:10 72.08 71.09 71.79 71.77 72.13 71.83
11/4/2014 16:00 to 15:10 71.89 72.87 72.91 71.68 71.13 72.57
11/4/2014 15:00 to 14:10 73.10 73.08 73.86 74.05 74.84 75.26
11/4/2014 14:00 to 13:10 74.63 73.69 72.38 73.42 73.99 74.10
11/4/2014 13:00 to 12:10 74.52 74.16 73.82 73.48 73.69 74.35
11/4/2014 12:00 to 11:10 74.86 74.39 75.31 75.71 75.50 76.07
11/4/2014 11:00 to 10:10 75.96 75.43 75.58 75.26 75.92 76.07
11/4/2014 10:00 to 9:10 76.24 75.84 76.81 76.09 76.28 75.79
11/4/2014 09:00 to 8:10 75.09 75.33 75.84 74.95 73.74 73.76
11/4/2014 08:00 to 7:10 73.93 72.80 73.48 75.01 74.31 74.39
11/4/2014 07:00 to 6:10 74.39 74.54 73.57 73.50 73.19 73.12
11/4/2014 06:00 to 5:10 72.36 72.02 72.25 72.40 72.02 72.27
11/4/2014 05:00 to 4:10 71.79 72.19 72.80 73.21 74.67 74.86
11/4/2014 04:00 to 3:10 74.63 73.99 73.63 72.27 73.40 73.16
11/4/2014 03:00 to 2:10 73.33 72.89 72.95 73.21 71.83 72.23
11/4/2014 02:00 to 1:10 72.83 71.98 72.17 72.13 71.94 72.23
11/4/2014 01:00 to 0:10 70.90 70.15 70.49 71.68 72.83 72.17